Vilalleons (Osona)





Hora UTC 05:40
Temperatura 12.8 ºC
Humitat 95.0 %
Pressió 1011.6 hPa
Pluja 0.0 mm
Velocitat vent 0.0 km/h
Direcció vent N

Dades diàries 2024-05-30



Hora UTC (hivern +1h; estiu +2h)
Temperatura (ºC) Humitat (%) Pressió (hPa) Velocitat vent (km/h) Precipitació (mm)
Hora UTC Aire Humitat Pressió Vel. Dir. Vel. Max Dir. Intent. màx 5 min.
00:05 15.1 88.0 1013.8 0.0 SE 0.0 0.0
00:10 14.9 88.0 1013.8 0.0 SE 0.0 0.0
00:15 14.8 88.0 1013.9 0.0 SE 0.0 0.0
00:20 14.7 88.0 1013.7 0.0 SE 0.0 0.0
00:25 14.5 88.0 1013.7 1.6 SE 3.2 0.0
00:30 14.4 88.0 1013.9 3.2 SE 3.2 0.0
00:35 14.2 89.0 1013.9 0.0 SE 3.2 0.0
00:40 14.1 89.0 1013.8 0.0 SE 3.2 0.0
00:45 13.9 89.0 1013.8 0.0 SE 0.0 0.0
00:50 13.8 89.0 1013.6 0.0 SE 0.0 0.0
00:55 13.7 89.0 1013.6 0.0 SE 0.0 0.0
01:00 13.6 89.0 1013.6 0.0 SE 0.0 0.0
01:05 13.6 90.0 1013.5 0.0 SE 0.0 0.0
01:10 13.5 90.0 1013.5 0.0 SE 0.0 0.0
01:15 13.5 90.0 1013.4 0.0 SE 0.0 0.0
01:20 13.4 90.0 1013.4 0.0 N 0.0 0.0
01:25 13.3 90.0 1013.4 0.0 N 0.0 0.0
01:30 13.2 90.0 1013.2 0.0 N 0.0 0.0
01:35 13.1 90.0 1013.2 0.0 N 0.0 0.0
01:40 13.1 90.0 1013.1 0.0 N 0.0 0.0
01:45 12.9 91.0 1012.9 0.0 N 0.0 0.0
01:50 12.8 91.0 1012.9 1.6 N 4.8 0.0
01:55 12.8 91.0 1012.8 1.6 N 4.8 0.0
02:00 12.8 91.0 1012.8 0.0 N 3.2 0.0
02:05 12.7 91.0 1012.7 0.0 N 3.2 0.0
02:10 12.7 92.0 1012.7 0.0 SE 0.0 0.0
02:15 12.7 92.0 1012.7 0.0 N 0.0 0.0
02:20 12.7 92.0 1012.7 0.0 SE 0.0 0.0
02:25 12.7 92.0 1012.6 0.0 N 0.0 0.0
02:30 12.7 92.0 1012.6 0.0 SE 0.0 0.0
02:35 12.6 92.0 1012.5 0.0 N 0.0 0.0
02:40 12.5 91.0 1012.5 0.0 SE 0.0 0.0
02:45 12.4 92.0 1012.4 0.0 N 0.0 0.0
02:50 12.5 92.0 1012.4 0.0 SE 0.0 0.0
02:55 12.4 92.0 1012.4 0.0 SE 0.0 0.0
03:00 12.3 92.0 1012.4 0.0 SE 0.0 0.0
03:05 12.4 92.0 1012.3 0.0 SE 0.0 0.0
03:10 12.3 92.0 1012.3 0.0 SE 0.0 0.0
03:15 12.3 92.0 1012.2 3.2 SE 3.2 0.0
03:20 12.3 93.0 1012.2 0.0 SE 3.2 0.0
03:25 12.3 93.0 1012.1 1.6 SE 3.2 0.0
03:30 12.2 93.0 1012.0 0.0 SE 3.2 0.0
03:35 12.2 93.0 1012.0 0.0 SE 3.2 0.0
03:40 12.2 93.0 1011.9 0.0 SE 3.2 0.0
03:45 12.1 93.0 1011.9 0.0 SE 3.2 0.0
03:50 12.1 93.0 1011.7 0.0 SE 3.2 0.0
03:55 12.1 93.0 1011.7 0.0 SE 0.0 0.0
04:00 12.1 93.0 1011.7 0.0 SE 0.0 0.0
04:05 11.9 93.0 1011.6 1.6 SE 1.6 0.0
04:10 11.9 93.0 1011.6 0.0 SE 3.2 0.0
04:15 11.9 93.0 1011.8 0.0 SE 1.6 0.0
04:20 11.8 93.0 1012.0 0.0 SE 3.2 0.0
04:25 11.8 93.0 1012.0 1.6 SE 3.2 0.0
04:30 11.8 93.0 1012.0 0.0 SE 3.2 0.0
04:35 11.8 94.0 1012.0 0.0 SE 0.0 0.0
04:40 11.9 94.0 1011.9 0.0 SE 0.0 0.0
04:45 11.9 94.0 1011.9 0.0 SE 0.0 0.0
04:50 11.9 94.0 1011.9 0.0 SE 0.0 0.0
04:55 12.0 94.0 1011.9 0.0 SE 0.0 0.0
05:00 12.1 94.0 1011.9 0.0 SE 0.0 0.0
05:05 12.2 94.0 1011.8 0.0 SE 0.0 0.0
05:10 12.3 94.0 1011.7 0.0 SE 0.0 0.0
05:15 12.3 94.0 1011.6 0.0 SE 0.0 0.0
05:20 12.4 95.0 1011.7 0.0 SE 0.0 0.0
05:25 12.5 95.0 1011.5 0.0 SE 0.0 0.0
05:30 12.6 95.0 1011.5 0.0 SE 0.0 0.0
05:35 12.7 95.0 1011.5 0.0 N 0.0 0.0
05:40 12.8 95.0 1011.6 0.0 N 0.0 0.0
Màxima 15.1 95.0 1013.9 3.2 SE 4.8 0.0
Mínima 11.7 88.0 1011.5
Total 0.0